Location: Karcze
(52.0945°N, 22.4786°E)
Time: 11:47:09
(UTC+00:00)

Cosmos 841 Rocket - Pass Details

Date: 14 July 2020
Orbit: 747 x 772 km, 74.0° (Epoch: 08 August)

Event Time Altitude Azimuth Distance (km) Brightness Sun altitude
Rises 01:07:50 0° 336° (NNW) 3,209 7.2 -9.2°
Reaches altitude 10° 01:10:16 10° 342° (NNW) 2,283 6.5 -9.0°
Maximum altitude 01:15:18 51° 58° (ENE) 952 4.5 -8.5°
Drops below altitude 10° 01:20:20 10° 134° (SE) 2,281 5.9 -8.0°
Sets 01:22:46 0° 140° (SE) 3,206 6.6 -7.8°
